Location: *
(50.2903°S, 172.5375°W)
Time: 18:13:36
(UTC+00:00)

Cosmos 2285 Rocket - Pass Details

Date: 17 November 2019
Orbit: 971 x 999 km, 74.0° (Epoch: 05 December)

Event Time Altitude Azimuth Distance (km) Brightness Sun altitude
Rises 12:16:29 0° 208° (SSW) 3,721 7.8 -19.4°
Reaches altitude 10° 12:19:07 10° 213° (SSW) 2,771 6.9 -19.3°
Maximum altitude 12:25:14 48° 284° (WNW) 1,290 4.4 -19.0°
Enters shadow 12:27:51 31° 337° (NNW) 1,663 4.6 -18.9°
